Location: Hurstbourne Priors
(51.2000°N, 1.3667°W)
Time: 08:03:33
(UTC+00:00)

SL-16 R/B - Pass Details

Date: 09 April 2020
Orbit: 985 x 1007 km, 99.5° (Epoch: 02 June)

Event Time Altitude Azimuth Distance (km) Brightness Sun altitude
Exits shadow 23:48:43 15° 88° (E) 2,416 4.5 -30.6°
Maximum altitude 23:51:53 22° 51° (NE) 2,031 4.4 -30.7°
Drops below altitude 10° 23:56:27 10° 4° (N) 2,775 5.8 -30.7°
Sets 23:59:28 0° 350° (N) 3,724 6.7 -30.7°
